User: anonymous   Login
Location: *
(51.1248°S, 108.4023°W)
Time: 19:54:48
(UTC+00:00)
Language:

Cosmos 2074 Rocket - Orbit

View from above orbital plane
View from above orbital plane
View from above satellite
View from above satellite

Ground track
Ground track

The orbit data is extracted from the following two-line orbital elements,

1 20578U 90036B   21270.45258362  .00000157  00000-0  14511-3 0  9995
2 20578  82.9392 279.3217 0011455 287.2975 246.0514 13.76394570578731
Epoch (UTC): 27 September 2021 10:51:43
Eccentricity: 0.0011455
inclination: 82.9392°
perigee height: 968 km
apogee height: 985 km
right ascension of ascending node: 279.3217°
argument of perigee: 287.2975°
revolutions per day: 13.76394570
mean anomaly at epoch: 246.0514°
orbit number at epoch: 57873

The dashed part of the orbit path shows where the satellite is in the earth's shadow,  

DLR